STARLINK-30245, 57612

Orbit data source: Space-Track

STARLINK-30245, 57612 is a payload satellite owned by SpaceX/Seattle (US) in LEO that was launched on Fri, 11 Aug 2023 UTC via an FALCON 9 launch vehicle from the Air Force Eastern Test Range (AFETR). Payload-class satellites include a variety of spacecraft equipped with specific instruments for various scientific and technological missions. These include communications satellites like Starlink; space stations such as the ISS; scientific satellites like the Hubble; Earth observation satellites from companies like Planet Labs, Umbra, and HawkEye 360; GPS; miniature CubeSats for education and research; and military/defense satellites.

Loading next visibility...
Identifier
57612, 2023-119L
Orbit
LEO
Country
Flag of USUS
Related business
Manufacturer
SpaceX/Seattle
Mission
Operational Commercial Communications
Bus & Motor
STARLINK V2M, Unknown motor
Mass
730 kg wet, ~700 kg dry
Launch date (UTC)
2023-08-11 (3 years ago)
Launch vehicle
FALCON 9
Launch site
Air Force Eastern Test Range (AFETR)
Object type
Payload
Rocket body
Debris
Shape & HBR
Box + 2 Pan, 17.7 m
Radar Cross Section
33.884 m², Large (>1 m²)

Expand to show TLE details & history
Last TLE update: 1 day ago

TLE from 1 day ago
0 STARLINK-30245
1 57612U 23119L   26094.60262585 -.00010405  00000-0 -36878-3 0  9999
2 57612  43.0023 294.8687 0000773 292.7095  67.3675 15.27609134147059
Epoch: 2026-04-04T14:27Z
TLE epoch observation values (Epoch: 2026-04-04T14:27:46.873Z)
Latitude
-0.00001°
Longitude
-114.99666°
Altitude
482.533 km
Speed
7.626 km/s
True Right ascension
19h 39m 28s
True Declination
0° 00' 00"
Sunlit
Object was in daylight at epoch
Visualization orbit readout
Latitude
Unknown
Longitude
Unknown
Altitude
Unknown
Speed
Unknown
Apparent Right ascension
Unknown
Apparent Declination
Unknown
Sunlit
N/A
Visualization observer readout
Local Sidereal Time
20:51:37
Azimuth
Unknown
Elevation
Unknown
Doppler factor
Unknown
Orbital elements
Apogee altitude
485.437 km
Perigee altitude
484.376 km
Semi-major axis
6,863.044 km
Eccentricity
0.00008
Inclination
43.0023°
RAAN
294.8687°
Arg. of periapsis
292.7095°
True anomaly
67.37568°
Mean anomaly
67.3675°
Eccentric anomaly
67.37159°
Mean motion
3.8174 °/min
Orbital period
94.3 mins
BSTAR
-0.00036878
Loading maneuver chart data...
Computing Atmospheric mass density...
Loading historical data...
Loading historical data...
Loading historical data...
Loading historical data...
Loading historical data...
Loading historical data...
Loading historical data...

Documentation

Showing up to 5 results
|